Location: Finnegan
(51.1333°N, 112.0833°W)
Time: 06:22:51
(UTC+00:00)

N. Korean satellite - Visible Passes

Search period start: 30 November 2021 00:00
Search period end: 10 December 2021 00:00
Orbit: 447 x 495 km, 97.3° (Epoch: 29 November)

Date Brightness Start Highest point End Pass type
(mag) Time Alt. Az. Time Alt. Az. Time Alt. Az.
30 Nov 7.8 00:08:15 10° S 00:11:43 47° W 00:15:08 10° NNW visible
30 Nov 6.2 13:01:07 10° NNE 13:04:32 81° WNW 13:07:54 10° SSW visible
01 Dec 7.5 12:32:42 10° NNE 12:36:00 44° E 12:39:15 10° S visible
01 Dec 8.0 14:06:44 10° NNW 14:08:54 16° WNW 14:11:03 10° WSW visible
02 Dec 9.6 00:45:30 10° SW 00:48:07 19° W 00:50:44 10° NW visible
02 Dec 9.0 12:04:40 10° NE 12:07:21 21° E 12:10:02 10° SE visible
02 Dec 7.2 13:37:35 10° N 13:40:37 30° WNW 13:43:37 10° SW visible
03 Dec 8.2 00:16:08 10° SSW 00:19:28 38° W 00:22:46 10° NNW visible
03 Dec 9.9 11:37:44 10° ENE 11:38:35 11° E 11:39:26 10° ESE visible
03 Dec 6.3 13:08:50 10° N 13:12:13 64° WNW 13:15:33 10° SSW visible
04 Dec 7.0 12:40:20 10° NNE 12:43:42 56° E 12:47:00 10° S visible
04 Dec 8.2 14:14:43 10° NNW 14:16:29 14° WNW 14:18:15 10° W visible
05 Dec 9.7 00:53:37 10° SW 00:55:51 16° W 00:58:05 10° NW visible
05 Dec 8.6 12:12:08 10° NE 12:15:03 26° E 12:17:56 10° SSE visible
05 Dec 7.4 13:45:21 10° N 13:48:12 25° WNW 13:51:02 10° WSW visible
06 Dec 8.6 00:23:58 10° SSW 00:27:08 31° W 00:30:17 10° NNW visible
06 Dec 9.7 11:44:37 10° ENE 11:46:17 13° E 11:47:56 10° ESE visible
06 Dec 6.5 13:16:28 10° N 13:19:48 51° WNW 13:23:05 10° SSW visible
07 Dec 6.6 12:47:52 10° NNE 12:51:17 70° ESE 12:54:39 10° S visible
07 Dec 8.3 14:22:46 10° NW 14:23:58 12° WNW 14:25:11 10° W visible
08 Dec 9.8 01:01:46 10° WSW 01:03:30 13° W 01:05:12 10° WNW visible
08 Dec 8.2 12:19:33 10° NNE 12:22:38 31° E 12:25:42 10° SSE visible
08 Dec 7.6 13:53:04 10° NNW 13:55:42 21° WNW 13:58:19 10° WSW visible
09 Dec 9.0 00:31:46 10° SSW 00:34:43 25° W 00:37:40 10° NW visible
09 Dec 9.4 11:51:44 10° NE 11:53:52 16° E 11:56:00 10° SE visible
09 Dec 6.7 13:24:04 10° N 13:27:17 42° WNW 13:30:30 10° SW visible
